Regional Weather Roundup
Issued by NWS

Home | Current Version | Previous Version | Graphics & Text | Print | Product List | Glossary Off
Versions: 1 2 3 4 5 6 7 8 9 10 11 12 13 14 15 16 17 18 19 20 21 22 23 24 25 26 27 28 29 30 31 32 33 34 35 36 37 38 39 40 41 42 43 44 45 46 47 48 49 50

000
ASUS43 KMKX 281421
RWRWI

WISCONSIN REGIONAL WEATHER ROUNDUP
NATIONAL WEATHER SERVICE MILWAUKEE/SULLIVAN WI
900 AM CDT TUE JUL 28 2015

NOTE: "FAIR" INDICATES FEW OR NO CLOUDS BELOW 12,000 FEET WITH NO
SIGNIFICANT WEATHER AND/OR OBSTRUCTIONS TO VISIBILITY.

WIZ001-002-006>008-014>016-023>028-281500-
NORTHWEST WISCONSIN

CITY           SKY/WX    TMP DP  RH WIND       PRES   REMARKS
SUPERIOR ARPT  CLOUDY    74  70  89 S5        29.80F
ASHLAND        CLOUDY    72  67  84 S6        29.88F
HAYWARD        LGT RAIN  72  66  81 S10       29.91S
SIREN          LGT RAIN  72  70  94 SE9       29.83F
CUMBERLAND     RAIN      68  68 100 S10       29.93S
RICE LAKE      HVY RAIN  69  66  90 SE8       29.95R
CHETEK         LGT RAIN  69  68  96 SE5       29.95R
LADYSMITH      CLOUDY    71  64  79 S5        29.97R
EAU CLAIRE     LGT RAIN  73  65  75 S8        29.95R
MENOMONIE      RAIN      71  70  95 E6        29.94R
NEW RICHMOND   LGT RAIN  70  70  99 SE14G24   29.82F
OSCEOLA        LGT RAIN  71  71 100 SE15G26   29.81F
$$

WIZ003>005-009-010-017-018-281500-
NORTH CENTRAL WISCONSIN

CITY           SKY/WX    TMP DP  RH WIND       PRES   REMARKS
MANITOWISH WTR CLOUDY    70  64  82 S10G16    29.97F
ARBOR VITAE    CLOUDY    72  63  73 S10       29.98F
WOODRUFF       CLOUDY    72  63  73 S10       29.98F
RHINELANDER    PTSUNNY   73  61  65 S8        30.01S
EAGLE RIVER    CLOUDY    71  59  66 S7        30.00F
LAND O LAKES   CLOUDY    73  60  65 S9        30.00F
PHILLIPS       CLOUDY    70  63  78 S10       29.97R
TOMAHAWK       PTSUNNY   71  62  73 S3        30.00S
MEDFORD        CLOUDY    69  64  84 S9        30.00R
MERRILL        NOT AVBL
$$

WIZ029-030-035-036-043>047-281500-
CENTRAL WISCONSIN

CITY           SKY/WX    TMP DP  RH WIND       PRES   REMARKS
WAUSAU         MOSUNNY   74  62  66 S9        29.99R
MOSINEE        SUNNY     73  64  73 S10       30.01R
MARSHFIELD     CLOUDY    74  62  66 S9        29.98R
STEVENS POINT  MOSUNNY   74  62  64 S9        30.00R
WAUPACA        SUNNY     78  64  62 SE5       29.99S HX  80
WAUTOMA        MOSUNNY   77  65  66 S7        30.00R
WISC RAPIDS    PTSUNNY   77  62  59 S8        30.00R
CAMP DOUGLAS   CLOUDY    75  70  83 S12       29.97R
$$

WIZ011>013-019>022-031-037>040-048>050-281500-
NORTHEAST WISCONSIN

CITY           SKY/WX    TMP DP  RH WIND       PRES   REMARKS
ANTIGO         MOSUNNY   72  63  74 S9G16     30.03S
SHAWANO        MOSUNNY   78  64  61 S3        30.00F HX  80
OCONTO         SUNNY     76  65  67 S6        30.00S
STURGEON BAY   SUNNY     79  63  57 S9        30.04R HX  80
GREEN BAY      SUNNY     78  67  68 S5        30.01R HX  80
MANITOWOC      SUNNY     76  67  73 MISG      30.02R
APPLETON       MOSUNNY   79  63  57 S9        30.01R HX  80
CLINTONVILLE   SUNNY     73  63  68 S8        30.00S
OSHKOSH        SUNNY     78  65  63 S9        29.99S HX  80
$$

WIZ032>034-041-042-053>061-281500-
SOUTHWEST WISCONSIN

CITY           SKY/WX    TMP DP  RH WIND       PRES   REMARKS
LA CROSSE      RAIN      72  68  87 S16       29.95R FOG
SPARTA         CLOUDY    73  64  71 S6        29.98R
VIROQUA        CLOUDY    71  66  86 S7        30.00R
BOSCOBEL       CLOUDY    76  67  73 SW3       29.97R
PRAIRIE DU CHI RAIN      72  67  82 SE5       29.96R
PLATTEVILLE    CLOUDY    75  69  80 SE7       29.98R
$$

WIZ056-057-062-063-064-067-068-281500-
SOUTH CENTRAL WISCONSIN

CITY           SKY/WX    TMP DP  RH WIND       PRES   REMARKS
REEDSBURG      PTSUNNY   76  65  68 SE6       29.98R
BARABOO/DELLS  PTSUNNY   76  61  59 S7        29.99R
LONE ROCK      PTSUNNY   77  66  68 S5        29.99R
MINERAL POINT  PTSUNNY   77  68  73 S8        30.00R
MADISON        PTSUNNY   78  64  61 S10       29.97F HX  80
MIDDLETON      MOSUNNY   76  62  62 S9        29.99R
WATERTOWN      SUNNY     77  70  78 S8        29.98F
MONROE         MOSUNNY   73  64  73 S8        29.99R
JANESVILLE     SUNNY     81  64  57 SE8       29.97F HX  82
$$

WIZ051-052-058>065-066-070>072-281500-
SOUTHEAST WISCONSIN

CITY           SKY/WX    TMP DP  RH WIND       PRES   REMARKS
MILWAUKEE      MOSUNNY   80  66  62 SE6       29.99F HX  82
WAUKESHA       SUNNY     77  61  57 MISG      30.01S
MILWAUKEE/TIMM SUNNY     79  63  57 S7        30.00F HX  80
RACINE         SUNNY     78  66  66 S9        30.01F HX  80
BURLINGTON     SUNNY     76  65  67 S6        30.00R
KENOSHA        SUNNY     80  68  66 SE8       30.00F HX  83
FOND DU LAC    SUNNY     79  65  62 S12       30.00S HX  81
SHEBOYGAN      SUNNY     77  68  73 S7        30.01R
WEST BEND      SUNNY     75  64  69 CALM      30.01R
JUNEAU           N/A     76  66  70 SE10      30.01S
$$

LSZ147-162-281500-
LAKE SUPERIOR

STATION/POSITION TIME  TEMP    WIND        PRES    WAVE
                       AIR SEA DIR/SP/G            HT/PER
                 (UTC) (F)     (DEG/KT/KT) (MB)    (FT/S)
W MID LAKE BUOY  1350   65 62  140/ 10/ 10 1012.4R   1/ 3
DEVILS ISLAND    1400   73     160/  8/ 10 1011.1F
PORT WING        1240   74     150/  6/ 13 1010.8F
SAXON HARBOR     1300   74                 1012.2
$$

LMZ867-665-643>646-281500-
LAKE MICHIGAN

STATION/POSITION TIME  TEMP    WIND        PRES    WAVE
                       AIR SEA DIR/SP/G            HT/PER
                 (UTC) (F)     (DEG/KT/KT) (MB)    (FT/S)
CHAMBERS ISLAND  1300   77     160/  4/  7 1015.9S
S GREEN BAY BUOY 1400   76 76  170/  8/ 10 1017.4R
N MID LAKE BUOY  1350   71 70  150/  2/  2 1016.1F   0
NORTHPORT PIER   1300   73     140/  8/ 10 1015.9F
SISTER BAY       1329   81     200/  7/  8   N/A
ALGOMA LAKESHORE 1312             CALM       N/A
KEWAUNEE LAKESHO 1300   71     120/  2/  2 1015.5F
SHEBOYGAN LAKESH 1400   71     150/  6/  7 1016.1R
PORT WASHINGTON  1300   74     150/  3/  4 1016.6S
ATWATER BUOY     1400   72     150/  8/ 10 1017.2F
MILWAUKEE LAKESH 1400   72     130/  9/ 10   N/A
KENOSHA   LAKESH 1400   73     160/  7/  8 1015.2F
$$

TC  - TEMPERATURE IN CELSIUS
VSB - VISIBILITY IN STATUTE MILES
WCI - WIND CHILL INDEX
HX  - HEAT INDEX




USA.gov is the U.S. government's official web portal to all federal, state and local government web resources and services.